Rock Hill, SC

6:47 PM EST on February 05, 2016 (GMT -0500)
Rock Hill-York County-Bryant

Weather History for KUZA - November, 2012

Change the Weather History Date:

Tuesday, November 6, 2012

  Actual Average Record
Temperature  
Mean Temperature 42 °F -  
Max Temperature 48 °F 64 °F 82 °F (1961)
Min Temperature 36 °F 42 °F 23 °F (1949)
Degree Days  
Heating Degree Days 23    
Moisture  
Dew Point 32 °F    
Average Humidity 66    
Maximum Humidity 82    
Minimum Humidity 50    
Precipitation  
Precipitation 0.00 in - - ()
Sea Level Pressure  
Sea Level Pressure 30.04 in    
Wind  
Wind Speed 6 mph (NE)    
Max Wind Speed 9 mph    
Max Gust Speed -    
Visibility 9 miles    
Events      
Averages and records for this station are not official NWS values.
T = Trace of Precipitation, MM = Missing Value Source: NWS Daily Summary

Daily Weather History Graph

Daily Weather History Graph

Search for Another Location

Airport or City:

Trip Planner

Search our weather history database for the weather conditions in past years. The results will help you decide how hot, cold, wet, or windy it might be!

Date:

Astronomy

Nov. 06, 2012 Rise Set
Actual Time 6:50 AM EST 5:24 PM EST
Civil Twilight 6:23 AM EST 5:51 PM EST
Nautical Twilight 5:53 AM EST 6:21 PM EST
Astronomical Twilight 5:24 AM EST 6:51 PM EST
Moon 11:59 PM EST (11/6) 12:43 PM EST (11/6)
Length of Visible Light 11h 27m
Length of Day
10h 34m
Waning Gibbous, 53% of the Moon is Illuminated
Nov 6
Waning Gibbous
Nov 6
Last Quarter
Nov 13
New
Nov 20
First Quarter
Nov 28
Full

Hourly Weather History & Observations

Time (EST) Temp. Windchill Dew Point Humidity Pressure Visibility Wind Dir Wind Speed Gust Speed Precip Events Conditions
12:54 AM 44.1 °F 42.5 °F 35.1 °F 71% 30.07 in 10.0 mi East 3.5 mph - N/A   Clear
1:54 AM 44.1 °F 41.5 °F 34.0 °F 68% 30.06 in 10.0 mi Variable 4.6 mph - N/A   Clear
2:54 AM 44.1 °F 40.8 °F 33.1 °F 65% 30.07 in 10.0 mi Variable 5.8 mph - N/A   Clear
3:54 AM 44.1 °F 40.8 °F 33.1 °F 65% 30.05 in 10.0 mi Variable 5.8 mph - N/A   Partly Cloudy
4:54 AM 43.0 °F 40.3 °F 33.1 °F 68% 30.08 in 10.0 mi East 4.6 mph - N/A   Mostly Cloudy
5:54 AM 43.0 °F 39.5 °F 32.0 °F 65% 30.08 in 10.0 mi ENE 5.8 mph - N/A   Overcast
6:54 AM 42.1 °F 40.2 °F 32.0 °F 67% 30.11 in 10.0 mi NE 3.5 mph - N/A   Overcast
7:54 AM 42.1 °F 38.4 °F 32.0 °F 67% 30.12 in 9.0 mi ENE 5.8 mph - N/A   Overcast
8:54 AM 42.1 °F 37.7 °F 32.0 °F 67% 30.12 in 9.0 mi NNE 6.9 mph - N/A   Overcast
9:54 AM 43.0 °F 38.8 °F 32.0 °F 65% 30.12 in 9.0 mi NE 6.9 mph - N/A   Unknown
10:54 AM 44.1 °F 40.1 °F 30.9 °F 60% 30.12 in 9.0 mi Variable 6.9 mph - N/A   Overcast
11:54 AM 45.0 °F 40.1 °F 30.9 °F 58% 30.08 in 9.0 mi NNE 9.2 mph - N/A   Overcast
12:54 PM 46.0 °F 42.5 °F 32.0 °F 58% 30.04 in 9.0 mi Variable 6.9 mph - N/A   Overcast
1:54 PM 45.0 °F 41.2 °F 30.0 °F 56% 30.00 in 9.0 mi Variable 6.9 mph - N/A   Overcast
2:54 PM 48.0 °F - 30.0 °F 50% 29.99 in 10.0 mi NNE 8.1 mph - N/A   Unknown
3:54 PM 48.0 °F - 30.0 °F 50% 29.99 in 9.0 mi ENE 9.2 mph - N/A   Partly Cloudy
4:54 PM 46.0 °F 42.5 °F 30.9 °F 56% 29.99 in 10.0 mi Variable 6.9 mph - N/A   Mostly Cloudy
5:54 PM 44.1 °F 40.1 °F 32.0 °F 63% 30.00 in 10.0 mi NNE 6.9 mph - N/A   Overcast
6:54 PM 42.1 °F 38.4 °F 33.1 °F 70% 30.01 in 9.0 mi NNE 5.8 mph - N/A   Unknown
7:54 PM 39.9 °F 35.8 °F 34.0 °F 79% 30.01 in 8.0 mi NNW 5.8 mph - N/A   Mostly Cloudy
8:54 PM 36.0 °F 32.1 °F 30.9 °F 82% 30.01 in 8.0 mi NNE 4.6 mph - N/A   Clear
9:54 PM 39.0 °F 34.0 °F 33.1 °F 79% 29.99 in 8.0 mi NNE 6.9 mph - N/A   Clear
10:54 PM 37.9 °F 31.5 °F 32.0 °F 79% 29.99 in 8.0 mi NNE 9.2 mph - N/A   Clear
11:54 PM 37.0 °F 31.6 °F 32.0 °F 82% 29.97 in 8.0 mi NNE 6.9 mph - N/A   Clear